Weather History for Silver City, NM

Change the Weather History Date:

Monday, December 9, 2013

  Actual Average (KDMN) Record (KDMN)
Temperature  
Mean Temperature 30 °F 42 °F  
Max Temperature 44 °F 57 °F 77 °F (1958)
Min Temperature 17 °F 27 °F 8 °F (1953)
Degree Days  
Heating Degree Days 34    
Moisture  
Dew Point 16 °F    
Average Humidity 52    
Maximum Humidity 87    
Minimum Humidity 20    
Precipitation  
Precipitation 0.00 in 0.03 in 0.42 in (1982)
Month to date precipitation 0.28  
Year to date precipitation 10.94  
Sea Level Pressure  
Sea Level Pressure 30.14 in    
Wind  
Wind Speed 12 mph (NW)    
Max Wind Speed 25 mph    
Max Gust Speed 32 mph    
Visibility 10 miles    
Events Thunderstorm    
T = Trace of Precipitation, MM = Missing Value Source: NWS Daily Summary

Daily Weather History Graph

Daily Weather History Graph

Search for Another Location

Airport:

Trip Planner

Search our weather history database for the weather conditions in past years. The results will help you decide how hot, cold, wet, or windy it might be!

Date:

Astronomy

Dec. 09, 2013 Rise Set
Actual Time 7:03 AM MST 5:06 PM MST
Civil Twilight 6:36 AM MST 5:34 PM MST
Nautical Twilight 6:05 AM MST 6:04 PM MST
Astronomical Twilight 5:35 AM MST 6:34 PM MST
Moon 12:17 PM MST (12/9) No Moon Set
Length of Visible Light 10h 57m
Length of Day
10h 03m
First Quarter, 52% of the Moon is Illuminated
Dec 9
First Quarter
Dec 17
Full
Dec 25
Last Quarter
Jan 1
New
Jan 7
First Quarter

Hourly Weather History & Observations

Time (MST) Temp. Windchill Dew Point Humidity Pressure Visibility Wind Dir Wind Speed Gust Speed Precip Events Conditions
12:15 AM 32.0 °F 23.6 °F 24.8 °F 75% 30.02 in 10.0 mi NW 10.4 mph - N/A Thunderstorm Clear
12:35 AM 32.0 °F 24.2 °F 24.8 °F 75% 30.01 in 10.0 mi NW 9.2 mph - N/A   Clear
12:55 AM 33.8 °F 25.8 °F 24.8 °F 70% 30.01 in 10.0 mi NW 10.4 mph - N/A   Clear
1:15 AM 35.6 °F 27.5 °F 26.6 °F 70% 30.01 in 10.0 mi NW 11.5 mph - N/A   Clear
1:35 AM 35.6 °F 27.5 °F 26.6 °F 70% 30.00 in 10.0 mi NW 11.5 mph - N/A   Clear
1:55 AM 35.6 °F 27.1 °F 26.6 °F 70% 30.01 in 10.0 mi NW 12.7 mph - N/A   Clear
2:15 AM 35.6 °F 25.9 °F 26.6 °F 70% 30.00 in 10.0 mi NW 16.1 mph 21.9 mph N/A   Clear
2:35 AM 35.6 °F 26.2 °F 26.6 °F 70% 30.01 in 10.0 mi NW 15.0 mph - N/A Thunderstorm Clear
2:55 AM 35.6 °F 26.6 °F 26.6 °F 70% 30.01 in 10.0 mi NW 13.8 mph 20.7 mph N/A   Clear
3:15 AM 33.8 °F 26.4 °F 26.6 °F 75% 30.01 in 10.0 mi NW 9.2 mph - N/A   Clear
3:35 AM 32.0 °F 24.2 °F 26.6 °F 80% 30.02 in 10.0 mi NW 9.2 mph - N/A   Clear
3:55 AM 32.0 °F 25.6 °F 26.6 °F 80% 30.01 in 10.0 mi NNW 6.9 mph - N/A   Clear
4:15 AM 32.0 °F 24.8 °F 26.6 °F 80% 30.01 in 10.0 mi NNW 8.1 mph - N/A Thunderstorm Clear
4:35 AM 32.0 °F 24.8 °F 26.6 °F 80% 30.01 in 10.0 mi NW 8.1 mph - N/A   Clear
4:55 AM 32.0 °F 26.4 °F 26.6 °F 80% 30.01 in 10.0 mi NNW 5.8 mph - N/A   Partly Cloudy
5:15 AM 32.0 °F - 26.6 °F 80% 30.02 in 10.0 mi Calm Calm - N/A Thunderstorm Scattered Clouds
5:35 AM 32.0 °F 26.4 °F 26.6 °F 80% 30.02 in 10.0 mi NNW 5.8 mph - N/A Thunderstorm Scattered Clouds
5:55 AM 32.0 °F 24.8 °F 26.6 °F 80% 30.03 in 10.0 mi NW 8.1 mph - N/A   Partly Cloudy
6:15 AM 32.0 °F 23.6 °F 28.4 °F 87% 30.03 in 10.0 mi NW 10.4 mph 18.4 mph N/A   Clear
6:35 AM 33.8 °F 25.3 °F 28.4 °F 81% 30.04 in 10.0 mi WNW 11.5 mph - N/A   Clear
6:55 AM 32.0 °F 22.5 °F 26.6 °F 80% 30.05 in 10.0 mi WNW 12.7 mph - N/A   Clear
7:15 AM 32.0 °F 25.6 °F 26.6 °F 80% 30.06 in 10.0 mi WNW 6.9 mph - N/A   Clear
7:35 AM 32.0 °F 24.2 °F 26.6 °F 80% 30.07 in 10.0 mi WNW 9.2 mph - N/A Thunderstorm Clear
7:55 AM 35.6 °F 29.9 °F 28.4 °F 75% 30.08 in 10.0 mi NW 6.9 mph - N/A   Clear
8:15 AM 35.6 °F 27.5 °F 28.4 °F 75% 30.08 in 10.0 mi NW 11.5 mph - N/A   Clear
8:35 AM 37.4 °F 26.9 °F 28.4 °F 70% 30.09 in 10.0 mi NW 20.7 mph 27.6 mph N/A   Scattered Clouds
8:55 AM 37.4 °F 28.2 °F 26.6 °F 65% 30.11 in 10.0 mi NW 16.1 mph 25.3 mph N/A   Mostly Cloudy
9:15 AM 37.4 °F 26.4 °F 24.8 °F 60% 30.11 in 10.0 mi WNW 23.0 mph 28.8 mph N/A   Scattered Clouds
9:35 AM 37.4 °F 27.2 °F 26.6 °F 65% 30.12 in 10.0 mi NW 19.6 mph 26.5 mph N/A   Scattered Clouds
9:55 AM 39.2 °F 29.6 °F 24.8 °F 56% 30.13 in 10.0 mi WNW 19.6 mph 29.9 mph N/A   Partly Cloudy
10:15 AM 39.2 °F 29.0 °F 24.8 °F 56% 30.14 in 10.0 mi NW 21.9 mph 32.2 mph N/A   Clear
10:35 AM 39.2 °F 29.6 °F 24.8 °F 56% 30.13 in 10.0 mi WNW 19.6 mph 29.9 mph N/A   Clear
10:55 AM 41.0 °F 31.4 °F 23.0 °F 49% 30.13 in 10.0 mi WNW 21.9 mph 27.6 mph N/A   Clear
11:15 AM 41.0 °F 30.7 °F 21.2 °F 45% 30.13 in 10.0 mi WNW 25.3 mph 29.9 mph N/A   Clear
11:35 AM 41.0 °F 32.2 °F 19.4 °F 42% 30.13 in 10.0 mi WNW 18.4 mph 26.5 mph N/A   Clear
11:55 AM 42.8 °F 33.5 °F 14.0 °F 31% 30.13 in 10.0 mi WNW 23.0 mph 31.1 mph N/A   Clear
12:15 PM 41.0 °F 31.4 °F 15.8 °F 36% 30.12 in 10.0 mi WNW 21.9 mph 28.8 mph N/A   Clear
12:35 PM 42.8 °F 35.4 °F 15.8 °F 34% 30.13 in 10.0 mi WNW 15.0 mph - N/A   Clear
12:55 PM 44.6 °F 36.4 °F 15.8 °F 31% 30.12 in 10.0 mi WNW 20.7 mph 25.3 mph N/A   Clear
1:15 PM 44.6 °F 35.9 °F 15.8 °F 31% 30.11 in 10.0 mi WNW 23.0 mph 27.6 mph N/A   Clear
1:35 PM 44.6 °F 36.6 °F 10.4 °F 25% 30.12 in 10.0 mi WNW 19.6 mph 24.2 mph N/A Thunderstorm Clear
1:55 PM 44.6 °F 36.9 °F 6.8 °F 21% 30.13 in 10.0 mi WNW 18.4 mph 25.3 mph N/A   Clear
2:15 PM 44.6 °F 37.4 °F 8.6 °F 23% 30.13 in 10.0 mi WNW 16.1 mph 24.2 mph N/A Thunderstorm Clear
2:35 PM 44.6 °F 37.8 °F 5.0 °F 20% 30.14 in 10.0 mi WNW 15.0 mph 20.7 mph N/A   Clear
2:55 PM 44.6 °F 37.8 °F 5.0 °F 20% 30.15 in 10.0 mi NW 15.0 mph 25.3 mph N/A   Clear
3:15 PM 44.6 °F 38.1 °F 6.8 °F 21% 30.16 in 10.0 mi WNW 13.8 mph - N/A   Clear
3:35 PM 44.6 °F 37.8 °F 6.8 °F 21% 30.17 in 10.0 mi West 15.0 mph 19.6 mph N/A   Clear
3:55 PM 44.6 °F 37.2 °F 6.8 °F 21% 30.18 in 10.0 mi WNW 17.3 mph - N/A   Clear
4:15 PM 42.8 °F 35.1 °F 5.0 °F 21% 30.19 in 10.0 mi WNW 16.1 mph - N/A   Clear
4:35 PM 41.0 °F 33.9 °F 6.8 °F 24% 30.20 in 10.0 mi West 12.7 mph - N/A   Clear
4:55 PM 39.2 °F 32.5 °F 6.8 °F 26% 30.20 in 10.0 mi WNW 10.4 mph - N/A   Clear
5:15 PM 37.4 °F 30.3 °F 6.8 °F 28% 30.21 in 10.0 mi WNW 10.4 mph - N/A   Clear
5:35 PM 35.6 °F 27.1 °F 6.8 °F 30% 30.22 in 10.0 mi NW 12.7 mph - N/A   Clear
5:55 PM 32.0 °F 22.5 °F 6.8 °F 35% 30.22 in 10.0 mi NW 12.7 mph - N/A   Clear
6:15 PM 33.8 °F 25.3 °F 5.0 °F 30% 30.24 in 10.0 mi NNW 11.5 mph - N/A   Clear
6:35 PM 32.0 °F 23.0 °F 6.8 °F 35% 30.25 in 10.0 mi NNW 11.5 mph - N/A   Clear
6:55 PM 32.0 °F 23.6 °F 5.0 °F 32% 30.27 in 10.0 mi North 10.4 mph - N/A   Clear
7:15 PM 32.0 °F 25.6 °F 6.8 °F 35% 30.28 in 10.0 mi NNW 6.9 mph - N/A   Clear
7:35 PM 28.4 °F 19.7 °F 5.0 °F 37% 30.28 in 10.0 mi NNW 9.2 mph - N/A Thunderstorm Clear
7:55 PM 28.4 °F 20.4 °F 5.0 °F 37% 30.28 in 10.0 mi NNW 8.1 mph - N/A   Clear
8:15 PM 24.8 °F 16.1 °F 5.0 °F 43% 30.29 in 10.0 mi NNW 8.1 mph - N/A   Clear
8:35 PM 24.8 °F 16.1 °F 5.0 °F 43% 30.30 in 10.0 mi NNW 8.1 mph - N/A   Clear
8:55 PM 23.0 °F 13.9 °F 6.8 °F 50% 30.30 in 10.0 mi North 8.1 mph - N/A   Clear
9:15 PM 23.0 °F 13.1 °F 6.8 °F 50% 30.30 in 10.0 mi North 9.2 mph - N/A   Clear
9:35 PM 23.0 °F 14.7 °F 5.0 °F 46% 30.30 in 10.0 mi North 6.9 mph - N/A   Clear
9:55 PM 24.8 °F 19.1 °F 5.0 °F 43% 30.31 in 10.0 mi North 4.6 mph - N/A   Clear
10:15 PM 23.0 °F 14.7 °F 5.0 °F 46% 30.32 in 10.0 mi NW 6.9 mph - N/A   Clear
10:35 PM 21.2 °F 12.6 °F 5.0 °F 50% 30.32 in 10.0 mi NNW 6.9 mph - N/A   Clear
10:55 PM 19.4 °F 10.4 °F 5.0 °F 54% 30.33 in 10.0 mi NW 6.9 mph - N/A   Clear
11:15 PM 17.6 °F 5.7 °F 5.0 °F 58% 30.33 in 10.0 mi NNW 10.4 mph - N/A   Clear
11:35 PM 19.4 °F 6.6 °F 5.0 °F 54% 30.33 in 10.0 mi North 12.7 mph - N/A Thunderstorm Clear
11:55 PM 21.2 °F 8.9 °F 5.0 °F 50% 30.34 in 10.0 mi North 12.7 mph - N/A   Clear